Weather in Stepanivka Persha

Ukraine / Zaporizhia Region     46°28′48″N   35°33′09″E
temp.,
°C
wind,
m/s
gust,
m/s
humid.,
%
clouds,
%
prec.,
mm/h
press.,
hPa
HPBL,
m
5 march, fri
fri523:00+5sw915800 0.0 1016510
02:00+5sw814830 0.0 1015551
05:00+5sw8138841 0.0 1014461
08:00+6sw7108668 0.0 1014439
11:00+7ssw687577 0.0 1014401
14:00+8s567064 0.0 1013235
17:00+9s577146 0.0 1012143
20:00+8sw568173 0.0 101399
6 march, sat
sat623:00+6sw6991100 0.0 1012202
02:00+6sw51188100 0.0 1012289
05:00+6wsw61190100 0.0 1011304
08:00+5nw71083100 0.0 1014627
11:00+4nnw91169100 0.0 1017938
14:00+4nnw91154100 0.0 10191336
17:00+3nnw81048100 0.0 10221409
20:00+1nnw7105367 0.0 1025764
7 march, sun
sun723:000nnw58600 0.0 1027495
02:000wnw57550 0.0 1028393
05:00−1wnw57550 0.0 1027272
08:00+1w68460 0.0 1028655
11:00+4wsw810451 0.0 10261845
14:00+5wsw9114843 0.0 10241712
17:00+4wsw8104932 0.0 10221075
20:00+2wsw9115836 0.0 1022624
8 march, mon
mon823:00+3wsw913655 0.0 1021699
02:00+3wsw1015672 0.0 1020812
05:00+3wsw9147335 0.0 1018742
08:00+4wsw10137166 0.0 1018952
11:00+6wsw9116478 0.0 10171188
14:00+7sw10125945 0.0 10161242
17:00+6wsw9126054 0.0 1015774
20:00+5wsw7127277 0.0 1016543
9 march, tue
tue923:00+4wsw61080100 0.1 1016442
02:00+3wsw468474 0.2 1015265
05:00+3wsw468711 0.0 1015255
08:00+3wnw57759 0.1 1016454
11:00+6wnw455916 0.0 1016957
14:00+5nw576746 0.1 1017920
17:00+5nnw455279 0.0 10171331
20:00+2n465467 0.0 1019198